EW6196 Weather Reports


Display with metric or nautical units.
time (UTC)temp
F
wind
direction
speed
MPH
gust
MPH
rain 1hr
in
rain 24hr
in
rain mn
in
humidity
%
barometer
mb
20260901170404 90 212 0.0 1.0 0.00 0.00 0.00 40 1013.4
20260901163402 87 237 0.0 0.0 0.00 0.00 0.00 44 1013.3
20260901160401 86 229 0.0 0.0 0.00 0.00 0.00 47 1013.2
20260901153401 83 231 0.0 0.0 0.00 0.00 0.00 53 1013.4
20260901151745 80 229 0.0 0.0 0.00 0.00 0.00 64 1013.6
20260901143359 77 234 0.0 0.0 0.00 0.00 0.00 67 1013.8
20260901140400 74 257 0.0 0.0 0.00 0.00 0.00 74 1013.7
20260901133358 71 317 0.0 0.0 0.00 0.00 0.00 83 1013.8
20260901130358 68 318 0.0 1.0 0.00 0.00 0.00 87 1013.5
20260901123358 67 317 0.0 0.0 0.00 0.00 0.00 88 1013.6
20260901123124 66 317 0.0 0.0 0.00 0.00 0.00 87 1013.3
20260901113355 66 317 0.0 0.0 0.00 0.00 0.00 88 1012.9
20260901113140 66 317 0.0 0.0 0.00 0.00 0.00 88 1012.5
20260901103353 66 318 0.0 0.0 0.00 0.00 0.00 87 1012.2
20260901100354 67 319 0.0 0.0 0.00 0.00 0.00 87 1012.4
20260901093354 67 319 0.0 0.0 0.00 0.00 0.00 86 1012.2
20260901090354 68 319 0.0 0.0 0.00 0.00 0.00 86 1012.1
20260901083354 68 319 0.0 0.0 0.00 0.00 0.00 85 1012.1
20260901081736 69 319 0.0 0.0 0.00 0.00 0.00 84 1012.2
20260901074732 70 319 0.0 0.0 0.00 0.00 0.00 82 1012.4
20260901070351 70 319 0.0 0.0 0.00 0.00 0.00 82 1012.5
20260901063349 71 319 0.0 0.0 0.00 0.00 0.00 80 1012.8
20260901061726 72 319 0.0 0.0 0.00 0.00 0.00 79 1012.7
20260901053349 72 319 0.0 0.0 0.00 0.00 0.00 77 1012.4
20260901050347 73 319 0.0 0.0 0.00 0.00 0.00 76 1012.0
20260901043347 74 319 0.0 0.0 0.00 0.00 0.00 74 1011.8
20260901040344 75 319 0.0 0.0 0.00 0.00 0.00 70 1012.0
20260901033343 76 319 0.0 0.0 0.00 0.00 0.00 68 1012.0
20260901031718 77 318 0.0 0.0 0.00 0.00 0.00 64 1011.8
20260901023344 79 317 0.0 0.0 0.00 0.00 0.00 60 1011.5
20260901020343 81 317 0.0 0.0 0.00 0.00 0.00 56 1011.3
20260901013343 82 317 0.0 0.0 0.00 0.00 0.00 50 1011.0
20260901010338 84 317 0.0 0.0 0.00 0.00 0.00 47 1010.7
20260901003335 87 317 0.0 0.0 0.00 0.00 0.00 43 1010.6
20260901000332 89 317 0.0 0.0 0.00 0.00 0.00 39 1010.6
20260831233327 91 317 0.0 0.0 0.00 0.00 0.00 35 1010.3
20260831230327 93 309 0.0 0.0 0.00 0.00 0.00 35 1010.3
20260831223327 92 309 0.0 0.0 0.00 0.00 0.00 33 1010.2
20260831220321 95 309 0.0 0.0 0.00 0.00 0.00 36 1009.9
20260831213321 96 296 0.0 0.0 0.00 0.00 0.00 35 1009.8
20260831210322 96 292 0.0 0.0 0.00 0.00 0.00 36 1009.6
20260831203315 94 19 0.0 1.0 0.00 0.00 0.00 38 1009.7
20260831200315 94 18 0.0 0.0 0.00 0.00 0.00 39 1009.6
20260831193315 93 23 0.0 1.0 0.00 0.00 0.00 37 1009.6
20260831190311 93 10 0.0 0.0 0.00 0.00 0.00 44 1009.4
20260831183311 92 290 0.0 1.0 0.00 0.00 0.00 46 1009.6
20260831180311 90 24 0.0 1.0 0.00 0.00 0.00 52 1009.8
20260831173310 88 25 0.0 0.0 0.00 0.00 0.00 63 1009.9